Starlink 31205

operational
NORAD ID: 59046 Int'l Des: 2024-038 Owner: SPXS Country: US Constellation: starlink
LEOCIRCULAR

About Starlink 31205

Description loading...

Live Position

Loading 3D Globe...

Upcoming Passes

Altitude History

Altitude vs Time

uPlot chart will show altitude changes over time

Two-Line Element Set

1 59046U 24038Z 26046.69969756 .00000070 00000-0 12034-4 0 9997
2 59046 42.9966 147.8784 0000304 296.5287 63.5533 15.27570990111437
Epoch: Feb 15, 2026 • Age: 15 hours

Current Status

Altitude 496.1 km
Velocity 7.62 km/s
Sub-Earth Point -42.84°S, 154.59°E
Launch Date Feb 25, 2024
Age 1.9 years
Type internet

Technical Details

Classification Payload
Mass 730.00 kg
Dry Mass 700.00 kg
Total Mass 730.00 kg
Length 0.30 m
Diameter 4.10 m
Span 29.00 m
Shape Box + pan
Manufacturer SPXS
Bus Type Starlink V2M
Phase Status In Orbit
Owner/State SPXS/US

Large Constellations

Loading constellations...